Location: Gull Harbor
(47.1000°N, 122.9000°W)
Time: 10:31:06
(UTC-07:00)

ELECTRON R/B - Visible Passes

Search period start: 22 May 2018 00:00
Search period end: 01 June 2018 00:00
Orbit: 285 x 480 km, 82.9° (Epoch: 21 May)

Date Brightness Start Highest point End Pass type
(mag) Time Alt. Az. Time Alt. Az. Time Alt. Az.
22 May 6.6 22:20:59 10° NW 22:22:59 22° W 22:24:59 10° SSW visible
23 May 4.8 21:24:13 10° N 21:26:34 43° E 21:28:55 10° SSE visible
24 May 6.4 22:00:39 10° NNW 22:02:47 26° W 22:04:54 10° SSW visible
26 May 6.1 21:40:03 10° NNW 21:42:17 31° W 21:44:33 10° SSW visible
